COSMOS 2251 DEB

Satellite information

Favourite Embed

Satellite Type and Status

DEBRISIN ORBIT

Key statistics

Satellite COSMOS 2251 DEB at a glance.

Uptime

11710

Days in orbit

Revolutions

≈ 14.6

Per day

Orbit

LEO

Low Earth Orbit

Inclination

73.9

Latest

Satellite identification and parameters

Extended collection of information and parameters for COSMOS 2251 DEB.

Object identification

Identified? True

Debris? True

Object name: COSMOS 2251 DEB

International designator: 1993-036BUN

Object number (NORAD): 39583

Object ID (CCSDS): 39583

Country: COMMONWEALTH OF INDEPENDENT STATES (CIS)

Current information (Y/N): Y

RCS size: SMALL

Orbital parameters

Period: 98.849 minutes

Inclination: 73.9322 deg

SMA: 7081.767 km

Apoapsis: 808.7 km

Periapsis: 598.563 km

RAAN: 195.6783 deg

Eccentricy: 0.0148365

Argument of periapsis: 344.5718 deg

Mean anomaly: 15.0944 deg

Mean motion: 14.56767878 rev/day

Mean motion (dot): 0.00006989 rev/day2

B* drag term: 0.0013494 1/REarth

Two-line elements (TLE)

Creation date: July 5, 2025, 6:26 a.m.

Reference frame: TEME

Reference center: EARTH

Epoch: July 4, 2025, 5:34 p.m. UTC

TLE line 0: 0 COSMOS 2251 DEB

TLE line 1: 1 39583U 93036BUN 25185.73221713 .00006989 00000-0 13494-2 0 9991

TLE line 2: 2 39583 73.9322 195.6783 0148365 344.5718 15.0944 14.56767878762472

Live tracking on map

Real-time ground track for satellite COSMOS 2251 DEB.

In-orbit conjunctions

A list of the most updated potential collisions computed for object COSMOS 2251 DEB.

Target Orbit TCA Probability of collision Miss distance Type
CZ-6A DEB SSO 2024-12-11 08:10:51 0.0001469437 147.0 (m) DEBRIS

Associated space launch

Military communications satellite. Destroyed in a collision with Iridium 33.

COSMOS 2251 DEB was lifted into orbit during the mission ‘Kosmos-3M | Strela-2M 51’, on board a Kosmos-3M space rocket.

The launch took place on June 16, 1993, 4:17 a.m. from 132/1 (132L).

For more information about the launch, click the button.

Launch to space Kosmos-3M | Strela-2M 51
Kosmos-3M | Strela-2M 51

Agency: N/A

Status: Launch Successful

Launch date: June 16, 1993, 4:17 a.m. UTC

Rocket: Kosmos-3M

Launch pad: 132/1 (132L)

Location: Plesetsk Cosmodrome, Russian Federation

...

Latest news about this satellite

There are no fresh news available about this satellite. Check back as we update our databases every day.


Newsletter sign-up

Weekly statistics, charts and insights to help you stay on top of the space industry.